Weather in Shamhal

Russia / Republic of Dagestan     43°03′28″N   47°20′26″E
temp.,
°C
wind,
m/s
gust,
m/s
humid.,
%
clouds,
%
prec.,
mm/h
press.,
hPa
HPBL,
m
19 april, mon
mon1900:00+13ne1171100 0.0 101611
03:00+13e117099 0.0 101612
06:00+14ne1175100 0.0 101633
09:00+19ese345938 0.0 1015517
12:00+23e55425 0.0 1014842
15:00+21e6644100 0.0 1013567
18:00+19se34487 0.0 1013212
21:00+15e1258100 0.0 101524
20 april, tue
tue2000:00+15ese2258100 0.0 101558
03:00+14se3461100 0.0 101352
06:00+14se4564100 0.0 1013130
09:00+20se81250100 0.0 1010621
12:00+23se9104326 0.0 1007647
15:00+23se7943100 0.0 1004478
18:00+19se4559100 0.0 100599
21:00+18ne0262100 0.0 100622
21 april, wed
wed2100:00+15nnw3572100 0.0 100995
03:00+17nw91476100 0.3 1010442
06:00+16nw9155950 0.0 1014804
09:00+19nw11124766 0.0 10151170
12:00+20nw10104422 0.0 10151257
15:00+18nnw9949100 0.1 10151213
18:00+16nnw696298 0.1 1018785
21:00+13wnw487248 0.1 1020288
22 april, thu
thu2200:00+12wnw357916 0.1 1021141
03:00+12wnw3476100 0.1 1020124
06:00+12nw25819 0.0 1021193
09:00+16nnw44540 0.0 1021988
12:00+18nnw764998 0.0 10221614
15:00+16nnw6656100 0.0 10211304
18:00+15n2361100 0.0 1022622
21:00+14ene116572 0.0 1023276
23 april, fri
fri2300:00+13nw2369100 0.0 1021233
03:00+12nw5874100 0.0 1022512
06:00+11nw5883100 0.1 1022545
09:00+11nw5883100 0.4 1023576
12:00+12nw61076100 0.1 1024763
15:00+14wnw686067 0.1 1023790
18:00+14nnw356078 0.0 1023206
21:00+10w22790 0.0 102423